Flag for Canada Weather past 2 weeks in Stonewall, Manitoba, Canada

Now
63 °F

Passing clouds.


Feels Like: 63 °F
Forecast: 53 / 74 °F
Wind: 9 mph from Northeast

Location: Winnipeg Int. Airportman.

Current Time: Jul 22, 2014 at 10:30:14 PM

Latest Report: Jul 22, 2014 at 10:00 PM


Visibility: 15 mi

Pressure: 30.24 "Hg

Humidity: 77%

Dew point: 55 °F

Location of StonewallLocation

Historic Weather in Stonewall — Graph

°F

Stonewall temperature yesterday

Maximum temperature yesterday: 81 °F (at 2:00 PM)
Minimum temperature yesterday: 64 °F (at 2:00 AM)
Average temperature yesterday: 71 °F

Past Weeks' High & Low Weather Summary

 TemperatureHumidityPressure
High88 °F (Jul 20, 2:00 PM)100% (Jul 15, 1:00 AM)30.23 "Hg (Jul 15, 1:00 AM)
Low45 °F (Jul 15, 5:00 AM)41% (Jul 9, 6:00 PM)29.51 "Hg (Jul 20, 1:00 PM)
Average66 °F70%29.89 "Hg
* Reported Jul 7 9:00 PM — Jul 22 9:00 PM, Stonewall, Weather by CustomWeather, © 2014

Note: Actual official high and low records may vary slightly from our data, if they occured in-between our weather recording intervals... More about our weather records

Advertising

Stonewall weather history for previous 24 hours

 ConditionsComfort  
Time TempWeatherWind HumidityBarometerVisibility
9:00 PM
Jul 22
66 °FPassing clouds.9 mph73%30.23 "Hg15 mi
8:00 PM70 °FPassing clouds.13 mph64%30.21 "Hg15 mi
6:00 PM75 °FScattered clouds.16 mph44%30.19 "Hg15 mi
12:00 PM73 °FPassing clouds.14 mph47%30.13 "Hg15 mi
11:00 AM72 °FPassing clouds.8 mph61%30.11 "Hg15 mi
10:00 AM70 °FSunny.8 mph64%30.10 "Hg15 mi
9:00 AM66 °FSunny.9 mph73%30.09 "Hg15 mi
8:00 AM63 °FSunny.7 mph77%30.06 "Hg15 mi
7:00 AM57 °FScattered clouds.8 mph88%30.04 "Hg15 mi
6:00 AM54 °FPassing clouds.7 mph94%30.01 "Hg15 mi
5:00 AM57 °FPassing clouds.8 mph94%29.98 "Hg15 mi
4:00 AM59 °FPassing clouds.7 mph88%29.94 "Hg15 mi
3:00 AM61 °FPassing clouds.9 mph88%29.91 "Hg15 mi
2:00 AM63 °FPassing clouds.8 mph94%29.88 "Hg15 mi
1:00 AM63 °FPassing clouds.8 mph94%29.88 "Hg15 mi
12:00 AM63 °FPassing clouds.8 mph94%29.85 "Hg15 mi
11:00 PM
Jul 21
64 °FMostly cloudy.6 mph88%29.86 "Hg15 mi
10:00 PM66 °FSprinkles. More clouds than sun.5 mph83%29.84 "Hg15 mi
Weather by CustomWeather, © 2014

See weather overviewHow to use our weather pages